This demonstration page uses our WeatherBlox Daily Observations layout. Learn more.

38.88101, -77.10428

Hourly Observations for January 2, 2016

Temp ( °F °C ) Dew Point ( °F °C ) Humidity (%) Winds ( mph kmh ) Pressure ( in mb ) Visibility ( mi km ) Precip ( " mm )
12:52 am 00:52 Mostly Clear 36 2 21 -6 56 56 S 7 11 30.15 1021 10 16.09344 0 0
1:52 am 01:52 Clear 36 2 21 -6 56 56 SW 6 9 30.15 1021 10 16.09344 0 0
2:52 am 02:52 Mostly Clear 34 1 23 -5 65 65 SSW 5 7 30.15 1021 10 16.09344 0 0
3:52 am 03:52 Mostly Clear 34 1 23 -5 65 65 SW 5 7 30.15 1021 10 16.09344 0 0
4:52 am 04:52 Clear 34 1 25 -4 70 70 SW 6 9 30.15 1021 10 16.09344 0 0
5:52 am 05:52 Clear 34 1 23 -5 65 65 WSW 6 9 30.15 1021 10 16.09344 0 0
6:52 am 06:52 Mostly Clear 34 1 23 -5 65 65 SW 5 7 30.15 1021 10 16.09344 0 0
7:52 am 07:52 Mostly Sunny 34 1 23 -5 65 65 WSW 7 11 30.18 1022 10 16.09344 0 0
8:52 am 08:52 Mostly Sunny 37 3 25 -4 60 60 WSW 6 9 30.18 1022 10 16.09344 0 0
9:52 am 09:52 Sunny 39 4 27 -3 61 61 S 6 9 30.18 1022 10 16.09344 0 0
10:52 am 10:52 Sunny 43 6 23 -5 46 46 WSW 8 13 30.18 1022 10 16.09344 0 0
11:52 am 11:52 Sunny 45 7 25 -4 46 46 WNW 8 13 30.15 1021 10 16.09344 0 0
12:52 pm 12:52 Sunny 46 8 25 -4 43 43 WSW 10 17 30.09 1019 10 16.09344 0 0
1:52 pm 13:52 Sunny 48 9 25 -4 40 40 WSW 10 17 30.06 1018 10 16.09344 0 0
2:52 pm 14:52 Sunny 48 9 25 -4 40 40 SW 9 15 30.06 1018 10 16.09344 0 0
3:52 pm 15:52 Sunny 48 9 25 -4 40 40 SSW 8 13 30.03 1017 10 16.09344 0 0
4:52 pm 16:52 Sunny 46 8 25 -4 43 43 SW 8 13 30.06 1018 10 16.09344 0 0
5:52 pm 17:52 Clear 45 7 27 -3 49 49 S 8 13 30.06 1018 10 16.09344 0 0
6:52 pm 18:52 Clear 43 6 27 -3 53 53 SSW 6 9 30.06 1018 10 16.09344 0 0
7:52 pm 19:52 Clear 43 6 25 -4 49 49 SW 3 6 30.03 1017 10 16.09344 0 0
8:52 pm 20:52 Clear 43 6 27 -3 53 53 SW 5 7 30.03 1017 10 16.09344 0 0
9:52 pm 21:52 Clear 41 5 28 -2 61 61 WSW 5 7 30.03 1017 10 16.09344 0 0
10:52 pm 22:52 Clear 39 4 28 -2 65 65 Calm 30.03 1017 10 16.09344 0 0
11:52 pm 23:52 Clear 37 3 32 0 81 81 S 3 6 30.03 1017 10 16.09344 0 0

Powered by AerisWeather